Weather History for Sheridan, WY

Change the Weather History Date:

Sunday, August 12, 2012

  Actual Average Record
Temperature  
Mean Temperature 68 °F 70 °F  
Max Temperature 86 °F 88 °F 102 °F (1938)
Min Temperature 49 °F 53 °F 39 °F (1917)
Degree Days  
Heating Degree Days 0 1  
Month to date heating degree days 10 6  
Since 1 June heating degree days 85 181  
Since 1 July heating degree days 10 32  
Cooling Degree Days 3 6  
Month to date cooling degree days 85 79  
Year to date cooling degree days 542 311  
Since 1 June cooling degree days 538 307  
Growing Degree Days 18 (Base 50)    
Moisture  
Dew Point 48 °F    
Average Humidity 54    
Maximum Humidity 83    
Minimum Humidity 25    
Precipitation  
Precipitation 0.00 in 0.02 in 0.42 in (1979)
Month to date precipitation 0.11 0.29  
Year to date precipitation 6.99 9.62  
Sea Level Pressure  
Sea Level Pressure 30.08 in    
Wind  
Wind Speed 4 mph (East)    
Max Wind Speed 14 mph    
Max Gust Speed 18 mph    
Visibility 10 miles    
Events      
T = Trace of Precipitation, MM = Missing Value Source: NWS Daily Summary

Daily Weather History Graph

Daily Weather History Graph

Search for Another Location

Airport:

Trip Planner

Search our weather history database for the weather conditions in past years. The results will help you decide how hot, cold, wet, or windy it might be!

Date:

Astronomy

Aug. 12, 2012 Rise Set
Actual Time 6:07 AM MDT 8:17 PM MDT
Civil Twilight 5:35 AM MDT 8:49 PM MDT
Nautical Twilight 4:55 AM MDT 9:28 PM MDT
Astronomical Twilight 4:11 AM MDT 10:12 PM MDT
Moon 1:17 AM MDT (8/12) 4:50 PM MDT (8/12)
Length of Visible Light 15h 14m
Length of Day
14h 10m
Waning Crescent, 23% of the Moon is Illuminated
Aug 12
Waning Crescent
Aug 17
New
Aug 24
First Quarter
Aug 31
Full
Sep 8
Last Quarter

Hourly Weather History & Observations

Time (MDT) Temp. Dew Point Humidity Pressure Visibility Wind Dir Wind Speed Gust Speed Precip Events Conditions
12:53 AM 54.0 °F 46.9 °F 77% 30.08 in 10.0 mi Calm Calm - N/A   Clear
1:53 AM 55.0 °F 46.9 °F 74% 30.08 in 10.0 mi Calm Calm - N/A   Clear
2:53 AM 53.1 °F 46.9 °F 80% 30.09 in 10.0 mi Calm Calm - N/A   Clear
3:53 AM 52.0 °F 46.9 °F 83% 30.11 in 10.0 mi Calm Calm - N/A   Clear
4:53 AM 52.0 °F 46.0 °F 80% 30.12 in 10.0 mi Calm Calm - N/A   Clear
5:53 AM 51.1 °F 46.9 °F 86% 30.13 in 10.0 mi NW 3.5 mph - N/A   Clear
6:53 AM 53.1 °F 48.0 °F 83% 30.14 in 10.0 mi SSW 4.6 mph - N/A   Clear
7:53 AM 60.1 °F 50.0 °F 69% 30.15 in 10.0 mi Calm Calm - N/A   Clear
8:53 AM 66.9 °F 48.0 °F 51% 30.15 in 10.0 mi Calm Calm - N/A   Clear
9:53 AM 73.0 °F 48.9 °F 42% 30.13 in 10.0 mi Calm Calm - N/A   Clear
10:53 AM 78.1 °F 51.1 °F 39% 30.11 in 10.0 mi NE 6.9 mph - N/A   Clear
11:53 AM 80.1 °F 52.0 °F 38% 30.10 in 10.0 mi East 8.1 mph - N/A   Clear
12:53 PM 80.1 °F 50.0 °F 35% 30.09 in 10.0 mi Calm Calm - N/A   Scattered Clouds
1:53 PM 82.0 °F 48.9 °F 31% 30.07 in 10.0 mi NE 9.2 mph 16.1 mph N/A   Mostly Cloudy
2:53 PM 84.0 °F 46.0 °F 26% 30.06 in 10.0 mi NE 10.4 mph - N/A   Partly Cloudy
3:53 PM 84.9 °F 46.0 °F 26% 30.04 in 10.0 mi Variable 4.6 mph - N/A   Clear
4:53 PM 84.9 °F 45.0 °F 25% 30.03 in 10.0 mi ENE 6.9 mph - N/A   Clear
5:53 PM 84.0 °F 46.0 °F 26% 30.02 in 10.0 mi ENE 6.9 mph - N/A   Clear
6:53 PM 82.0 °F 45.0 °F 27% 30.01 in 10.0 mi East 6.9 mph - N/A   Clear
7:53 PM 77.0 °F 46.9 °F 34% 30.03 in 10.0 mi ESE 4.6 mph - N/A   Clear
8:53 PM 73.0 °F 48.0 °F 41% 30.04 in 10.0 mi SSE 4.6 mph - N/A   Clear
9:53 PM 66.0 °F 50.0 °F 56% 30.06 in 10.0 mi South 6.9 mph - N/A   Clear
10:53 PM 66.0 °F 50.0 °F 56% 30.05 in 10.0 mi SSE 4.6 mph - N/A   Clear
11:53 PM 64.9 °F 50.0 °F 58% 30.03 in 10.0 mi Calm Calm - N/A   Clear